INTELSAT 26 (IS-26)

Last updated on Tue Mar 22 2022 00:02:42 GMT+0000 (Coordinated Universal Time)

1 24732U 97007A 22079.70109892 -.00000254 00000+0 00000+0 0 9997 2 24732 9.9362 39.3345 0010285 285.9580 268.2894 0.98909574 91728

Satellite not in orbit

INTELSAT 26 (IS-26)